Location: Boca de Tacagua
(10.5333°N, 66.9833°W)
Time: 06:32:21
(UTC+00:00)

Ariane H10-3 - Pass Details

Date: 06 July 2022
Orbit: 475 x 36438 km, 5.2° (Epoch: 12 August)

Event Time Altitude Azimuth Distance (km) Brightness Sun altitude
Rises 20:21:03 0° 90° (E) 42,333 10.3 34.3°
Reaches altitude 10° 21:55:21 10° 93° (E) 38,312 10.1 12.6°
Maximum altitude 23:11:05 14° 96° (E) 31,376 9.6 -4.6°
Drops below altitude 10° 00:03:05 10° 97° (E) 24,510 9.0 -16.1°
Sets 00:34:48 0° 97° (E) 19,567 8.6 -23.0°
